Bad Harzburg

Germany     51˚53′14″N   10˚33′20″E
temp.,
°C
wind,
m/s
gust,
m/s
humid.,
%
clouds,
%
prec.,
mm/h
press.,
hPa
HPBL,
m
2 december, wed
wed201:00e229367 0.0 102240
04:00−1˚ese239343 0.0 102164
07:00−1˚ese239323 0.0 102155
10:00+1˚ese12820 0.0 1020115
13:00+3˚e22710 0.0 1017307
16:00e23840 0.0 101545
19:00−1˚s11900 0.0 101424
22:00−1˚ssw22870 0.0 101326
3 december, thu
thu301:00−1˚ssw22860 0.0 101037
04:00sw238726 0.0 100862
07:00ssw348944 0.0 1006136
10:00+2˚s268383 0.0 1005292
13:00+3˚ssw4107591 0.0 1003564
16:00+1˚s368642 0.0 1001131
19:00s278836 0.0 1000218
22:00sse278371 0.0 998203
4 december, fri
fri401:00se347975 0.0 99672
04:00+1˚se347797 0.0 99498
07:00se337999 0.0 99273
10:00+2˚se2372100 0.0 992106
13:00+5˚ese3459100 0.0 991158
16:00+2˚se126891 0.0 99145
19:00+1˚se237393 0.0 99147
22:00+1˚sw1275100 0.0 99227
5 december, sat
sat501:00ssw117870 0.0 99322
04:00+1˚s227867 0.0 99423
07:00+1˚sw128283 0.0 99647
10:00+2˚sse118767 0.0 99733
13:00+3˚nne238281 0.0 996366
16:00+1˚n2290100 0.0 99556
19:00+1˚n1190100 0.0 99584
22:00+1˚w1189100 0.0 99555
6 december, sun
sun601:00sw1292100 0.0 99529
04:00+1˚wsw1192100 0.0 99422
07:00+1˚wsw1298100 1.3 995105
10:00+2˚wsw1395100 0.1 996155
13:00+3˚sw2485100 0.1 997458
16:00+1˚sse118980 0.0 99822
19:00ese129047 0.0 100023
22:00ssw22800 0.0 100122